Change the Weather History Date:

Monday, January 29, 2001

  Actual Average Record
Temperature  
Mean Temperature 35 °F -  
Max Temperature 45 °F 34 °F 63 °F (2013)
Min Temperature 27 °F 22 °F 1 °F (2014)
Degree Days  
Heating Degree Days 30    
Moisture  
Dew Point 25 °F    
Average Humidity 68    
Maximum Humidity 87    
Minimum Humidity 49    
Precipitation  
Precipitation 0.02 in - - ()
Sea Level Pressure  
Sea Level Pressure 30.08 in    
Wind  
Wind Speed 9 mph (SSE)    
Max Wind Speed 20 mph    
Max Gust Speed 25 mph    
Visibility 8 miles    
Events Rain    
Averages and records for this station are not official NWS values.
T = Trace of Precipitation, MM = Missing Value Source: NWS Daily Summary

Daily Weather History Graph

Daily Weather History Graph

Search for Another Location

Airport or City:

Trip Planner

Search our weather history database for the weather conditions in past years. The results will help you decide how hot, cold, wet, or windy it might be!

Date:

Astronomy

Jan. 29, 2001 Rise Set
Actual Time 7:41 AM EST 5:39 PM EST
Civil Twilight 7:11 AM EST 6:08 PM EST
Nautical Twilight 6:38 AM EST 6:42 PM EST
Astronomical Twilight 6:05 AM EST 7:14 PM EST
Moon 10:28 AM EST (1/29) 10:39 PM EST (1/29)
Length of Visible Light 10h 57m
Length of Day
9h 57m
Waxing Crescent, 22% of the Moon is Illuminated
Jan 29
Waxing Crescent
Feb 1
First Quarter
Feb 8
Full
Feb 14
Last Quarter
Feb 23
New

Hourly Weather History & Observations

Time (EST) Temp. Windchill Dew Point Humidity Pressure Visibility Wind Dir Wind Speed Gust Speed Precip Events Conditions
12:53 AM 27.0 °F 18.0 °F 18.0 °F 69% 30.30 in 8.0 mi South 9.2 mph - N/A   Clear
1:53 AM 27.0 °F 19.5 °F 18.0 °F 69% 30.28 in 8.0 mi South 6.9 mph - N/A   Clear
2:53 AM 27.0 °F 20.5 °F 18.0 °F 69% 30.27 in 8.0 mi South 5.8 mph - N/A   Clear
3:53 AM 27.0 °F 18.7 °F 18.0 °F 69% 30.26 in 8.0 mi South 8.1 mph - N/A   Clear
4:53 AM 28.0 °F 22.8 °F 19.0 °F 69% 30.25 in 8.0 mi SSE 4.6 mph - N/A   Overcast
5:53 AM 30.0 °F 24.1 °F 21.0 °F 69% 30.24 in 8.0 mi South 5.8 mph - N/A   Overcast
6:22 AM 30.2 °F 23.4 °F 21.2 °F 69% 30.21 in 8.0 mi SSE 6.9 mph - N/A   Overcast
6:31 AM 30.2 °F 23.4 °F 21.2 °F 69% 30.21 in 8.0 mi South 6.9 mph - N/A   Mostly Cloudy
6:53 AM 30.0 °F 25.2 °F 21.0 °F 69% 30.23 in 8.0 mi SSE 4.6 mph - N/A   Mostly Cloudy
7:53 AM 30.0 °F 24.1 °F 24.1 °F 79% 30.22 in 6.0 mi SSE 5.8 mph - 0.00 in   Overcast
8:35 AM 30.2 °F 23.4 °F 24.8 °F 80% 30.19 in 5.0 mi SSE 6.9 mph - 0.01 in   Overcast
8:53 AM 30.9 °F 24.3 °F 27.0 °F 85% 30.22 in 4.0 mi SSE 6.9 mph - 0.01 in Rain Light Freezing Rain
9:53 AM 32.0 °F 25.6 °F 28.0 °F 85% 30.18 in 4.0 mi SSE 6.9 mph - 0.01 in   Overcast
10:00 AM 32.0 °F 23.6 °F 28.4 °F 87% 30.15 in 4.0 mi SSE 10.4 mph - 0.00 in   Overcast
10:53 AM 33.1 °F 23.4 °F 27.0 °F 78% 30.16 in 6.0 mi SSE 13.8 mph - 0.00 in   Haze
11:53 AM 35.1 °F 27.4 °F 26.1 °F 70% 30.13 in 9.0 mi SSE 10.4 mph - N/A   Overcast
12:53 PM 37.0 °F 29.8 °F 25.0 °F 62% 30.07 in 10.0 mi SSE 10.4 mph - N/A   Overcast
1:53 PM 37.9 °F 31.5 °F 27.0 °F 65% 30.01 in 10.0 mi SE 9.2 mph - N/A   Overcast
2:53 PM 39.9 °F 33.9 °F 27.0 °F 60% 29.99 in 10.0 mi SE 9.2 mph - N/A   Overcast
3:53 PM 41.0 °F 33.5 °F 30.0 °F 65% 29.98 in 10.0 mi SE 13.8 mph 18.4 mph N/A   Overcast
4:53 PM 41.0 °F 31.9 °F 30.0 °F 65% 29.93 in 10.0 mi SSE 19.6 mph 25.3 mph N/A   Overcast
5:53 PM 41.0 °F 32.8 °F 28.9 °F 62% 29.89 in 10.0 mi SSE 16.1 mph - N/A   Overcast
6:53 PM 39.9 °F 30.8 °F 28.0 °F 63% 29.88 in 10.0 mi SSE 18.4 mph 25.3 mph N/A   Mostly Cloudy
7:53 PM 39.9 °F 31.8 °F 28.9 °F 65% 29.86 in 10.0 mi SSE 15.0 mph - N/A   Overcast
8:53 PM 41.0 °F 34.3 °F 28.0 °F 60% 29.81 in 10.0 mi SSE 11.5 mph - N/A   Scattered Clouds
9:53 PM 43.0 °F 36.0 °F 27.0 °F 53% 29.79 in 10.0 mi SSE 13.8 mph - N/A   Overcast
10:53 PM 43.0 °F 35.7 °F 27.0 °F 53% 29.75 in 10.0 mi SSE 15.0 mph - 0.00 in Rain Light Rain
11:53 PM 45.0 °F 38.5 °F 27.0 °F 49% 29.71 in 10.0 mi SSE 13.8 mph - 0.00 in   Scattered Clouds